Regional Weather Roundup
Issued by NWS Charleston, SC

Current Version | Previous Version | Graphics & Text | Print | Product List | Glossary On
Versions: 1 2 3 4 5 6 7 8 9 10 11 12 13 14 15 16 17 18 19 20 21 22 23 24 25 26 27 28 29 30 31 32 33 34 35 36 37 38 39 40 41 42 43 44 45 46 47 48 49 50
000
ASUS42 KCHS 021028
RWRCHS

REGIONAL WEATHER ROUNDUP
NATIONAL WEATHER SERVICE CHARLESTON SC
600 AM EDT MON MAY 02 2016

NOTE: "FAIR" INDICATES FEW OR NO CLOUDS BELOW 12,000 FEET WITH NO
SIGNIFICANT WEATHER AND/OR OBSTRUCTIONS TO VISIBILITY.

NOT ALL STATIONS ARE QUALITY CONTROLLED. USE DATA WITH CAUTION...
ESPECIALLY DEWPOINT OBSERVATIONS.

SCZ027-030-031-034>040-042>050-021100-
...SOUTHEAST SOUTH CAROLINA...

CITY           SKY/WX    TMP DP  RH WIND       PRES   REMARKS
N CHARLESTON   MOCLDY    70  69  97 S3        30.03R
WATERFRONT PRK   N/A     73  72  96 SW5       30.01S
MOUNT PLEASANT FAIR      72  72 100 CALM      30.04R
JOHNS ISLAND   FAIR      73  73 100 SW5       30.03S
PINOPOLIS        N/A     72  70  94 CALM      29.96R
MONCKS CORNER  FOG       64  63  94 CALM      30.04R VSB 1
SUMMERVILLE    FOG       68  68 100 CALM      30.04S VSB 1/4
BEAUFORT MCAS  PTCLDY    73  71  93 S3        30.03R
BEAUFORT ARPT  FAIR      73  70  88 S6        30.02S
HILTON HEAD IS NOT AVBL
WALTERBORO     CLOUDY    72  72 100 SW5       30.04R
ALLENDALE      CLOUDY    66  66 100 CALM      30.02S

...SOUTHERN MIDLANDS AND PEE DEE...

CITY           SKY/WX    TMP DP  RH WIND       PRES   REMARKS
GEORGETOWN     FAIR      68  66  94 CALM      30.05R FOG
KINGSTREE      FOG       68  64  88 CALM      30.04S VSB 1
ORANGEBURG     CLOUDY    68  67  96 SW3       30.03S
BARNWELL       CLOUDY    66  66 100 CALM      30.04R
AIKEN          FAIR      64  63  94 CALM      30.06R
MANNING        NOT AVBL
COLUMBIA       CLOUDY    69  65  86 SW3       30.02R THUNDER
SUMTER         CLOUDY    68  66  93 S6        30.00F
FLORENCE       CLOUDY    69  68  96 S7        30.02S
MYRTLE BEACH   MOCLDY    72  64  78 SW8       30.05S
N MYRTLE BEACH CLOUDY    71  69  93 SW7       30.03S

$$

GAZ063-065-086>088-099>101-113>116-118-119-134>141-150-021100-
...SOUTHEAST GEORGIA...

CITY           SKY/WX    TMP DP  RH WIND       PRES   REMARKS
SAVANNAH ARPT  MOCLDY    71  69  93 SW3       30.02F
HUNTER AAF     PTCLDY    72  72 100 S5        30.00F
FORT STEWART   CLOUDY    67  66  97 CALM      30.00S FOG
STATESBORO     PTCLDY    71  71 100 SE5       30.01F
SYLVANIA       CLOUDY    67  67 100 CALM      30.02F FOG
CLAXTON          N/A     66  66 100 CALM      30.01F FOG

...CSRA...CENTRAL AND FAR SOUTHEAST GEORGIA...

CITY           SKY/WX    TMP DP  RH WIND       PRES   REMARKS
THOMSON        MOCLDY    70  68  92 CALM      30.06S
AUGUSTA-BUSH   CLOUDY    64  64 100 CALM      30.01F
AUGUSTA-DANIEL CLOUDY    68  65  90 SE3       30.02F
SWAINSBORO     PTSUNNY   64  64 100 CALM      30.03R
VIDALIA        MOCLDY    66  64  94 CALM      30.02S
EASTMAN        FAIR     N/A N/A N/A CALM      30.04S
HAZLEHURST     FAIR      71  71 100 S3        30.01R
ALMA           CLOUDY    70  69  97 SE5       30.01S
WAYCROSS       CLOUDY    70  70 100 S5        30.01R
JESUP          PTSUNNY   72  72 100 CALM      30.02S
BAXLEY         CLOUDY    70  70 100 CALM      30.01R
BRUNSWICK      PTCLDY    73  70  88 SE8       30.03S
SAINT SIMONS   CLEAR     73  72  96 S7        30.02S

$$

SCZ027-028-034-036>038-045-046-048>050-GAZ119-141-021100-
...LAKE AND SUPPLEMENTAL COASTAL OBSERVATIONS...

STATION/POSITION TIME  TEMP    WIND        PRES    WAVE   SWELL
                       AIR SEA DIR/SP/G            HT/PER HT/PER/DIR
                 (UTC) (F)     (DEG/KT/KT) (MB)    (FT/S) (FT/S/D)
WINYAH BAY       0945   72     210/  3     1016.0S
LAKE MURRAY      0900   69     250/  6/ 12 1015.9R
ACE BASIN NERRS  0945   73        CALM     1017.0S
FORT PULASKI     1000   74 74  200/  7/ 10 1017.0F
SAPELO ISLAND    1000   73     170/  7     1017.0S

$$

ANZ835-935-AMZ111-154-330-350-352-354-370-450-454-472-021100-
...C-MAN AND BUOY OBSERVATIONS...

STATION/POSITION TIME  TEMP    WIND        PRES    WAVE   SWELL
                       AIR SEA DIR/SP/G            HT/PER HT/PER/DIR
                 (UTC) (F)     (DEG/KT/KT) (MB)    (FT/S) (FT/S/D)
BUOY 41004       0950   75 74  210/  8/ 10 1016.6S   3/ 9   3/ 9
BUOY 41008       NOT AVBL
FOLLY BEACH CMAN 1000   73     200/  7/  9 1017.0S
CAPERS NEARSHORE 1008   72 72  200/  8/ 10 1016.8R
FRIPP NEARSHORE  1008   74 74  220/  8/ 12 1016.3R


STATION/POSITION TIME  TEMP    WIND        PRES    WAVE   SWELL
                       AIR SEA DIR/SP/G            HT/PER HT/PER/DIR
                 (UTC) (F)     (DEG/KT/KT) (MB)    (FT/S) (FT/S/D)
5E ST. MARYS GA  0921      74                N/A     3/10
FRYING PAN BUOY  1000   74 72  200/ 10/ 12 1017.0F
BUOY 41025       0950   73 73  240/ 14/ 16 1016.7R   4/ 9   3/ 90/ 9
CAPE LOOKOUT NC  1000   70     210/  8/ 11 1016.6R
BUOY 41002       0950   73 74  150/ 10/ 12 1019.2R   3/10   3/ 20/10
BUOY 41010       0920   77 79  160/ 14/ 17 1017.0R
ST AUGUSTINE FL  1000   71 71  240/  1/  2 1017.8R


$$




USA.gov is the U.S. government's official web portal to all federal, state and local government web resources and services.